Le nostre stazioni meteo in Italia

Pubblicità
Il mio iltempo24.it
Dunstaffnage, Gran Bretagna (99006): Temperatura & dewpoint: 17.05.2017 15:00:00 - 23.05.2017 15:00:00 (BST)Dunstaffnage, Gran Bretagna (99006): Temperatura 5cm: 17.05.2017 15:00:00 - 23.05.2017 15:00:00 (BST)Dunstaffnage, Gran Bretagna (99006): Temperatura -20cm: 17.05.2017 15:00:00 - 23.05.2017 15:00:00 (BST)Dunstaffnage, Gran Bretagna (99006): velocità del vento: 17.05.2017 15:00:00 - 23.05.2017 15:00:00 (BST)Dunstaffnage, Gran Bretagna (99006): direzione del vento: 17.05.2017 15:00:00 - 23.05.2017 15:00:00 (BST)Dunstaffnage, Gran Bretagna (99006): visibility: 17.05.2017 15:00:00 - 23.05.2017 15:00:00 (BST)Dunstaffnage, Gran Bretagna (99006): precipitazioni: 17.05.2017 15:00:00 - 23.05.2017 15:00:00 (BST)
Data & Tempo tt [°C] td [°C] tt 5cm [°C] tt -20cm [°C] ff [km/h] ff [kn] dd vv [km] rr [mm]
23.05.2017 15:00:00 13,0 9,9 - - 11 6 SO - 0,0
23.05.2017 14:00:00 12,8 10,5 - - 15 8 SO - 0,0
23.05.2017 13:00:00 13,7 10,4 - - 21 11 SSO - 0,0
23.05.2017 12:00:00 14,2 11,2 - - 16 9 SSO - 0,0
23.05.2017 11:00:00 13,0 10,2 - - 16 9 SSO - 0,0
23.05.2017 10:00:00 11,8 10,4 11,8 11,9 13 7 SSO 5 0,0
23.05.2017 09:00:00 11,0 9,9 - - 13 7 SO - 0,0
23.05.2017 08:00:00 10,8 9,8 - - 13 7 SO - 0,0
23.05.2017 07:00:00 10,7 9,8 - - 13 7 SO - 0,0
23.05.2017 06:00:00 9,9 9,3 - - 13 7 SO - 0,0
23.05.2017 05:00:00 9,9 9,5 - - 8 4 SSO - 0,0
23.05.2017 04:00:00 9,7 9,3 - - 5 3 SSE - 0,0
23.05.2017 03:00:00 9,5 8,8 - - 9 5 SSO - 0,0
23.05.2017 02:00:00 9,9 9,4 - - 8 4 SSO - 0,0
23.05.2017 01:00:00 9,9 9,3 - - 11 6 SO - 0,0
23.05.2017 00:00:00 9,6 9,3 - - 8 4 SSO - 0,0
22.05.2017 23:00:00 8,6 8,1 - - 13 7 ENE - 0,0
22.05.2017 22:00:00 9,0 8,3 - - 4 2 NNE - 0,0
22.05.2017 21:00:00 9,9 9,1 - - 2 1 SSE - 0,2
22.05.2017 20:00:00 9,8 8,8 - - 5 3 SE - 0,2
22.05.2017 19:00:00 9,7 9,0 - - 9 5 SO - 2,8
22.05.2017 18:00:00 10,1 8,6 - - 5 3 SSO - 0,4
22.05.2017 17:00:00 13,5 11,9 - - 11 6 SSE - 0,4
22.05.2017 16:00:00 12,7 11,4 - - 5 3 SE - 1,4
22.05.2017 15:00:00 12,9 11,4 - - 4 2 SSO - 1,0
22.05.2017 14:00:00 13,7 10,6 - - 11 6 S - 0,4
22.05.2017 13:00:00 14,9 9,6 - - 16 9 ESE - 0,0
22.05.2017 12:00:00 15,5 9,1 - - 22 12 E - 0,0
22.05.2017 11:00:00 14,8 9,0 - - 16 9 E - 0,0
22.05.2017 10:00:00 13,8 8,6 - 12,0 18 10 E 10 0,0
22.05.2017 09:00:00 13,7 8,7 - - 13 7 E - 0,0
22.05.2017 08:00:00 13,8 8,6 - - 16 9 ESE - 0,0
22.05.2017 07:00:00 12,7 8,4 - - 11 6 E - 0,0
22.05.2017 06:00:00 12,4 8,2 - - 9 5 ENE - 0,0
22.05.2017 05:00:00 12,0 8,3 - - 15 8 E - 0,0
22.05.2017 04:00:00 12,5 8,1 - - 11 6 ESE - 0,0
22.05.2017 03:00:00 12,0 8,3 - - 13 7 E - 0,0
22.05.2017 02:00:00 11,3 8,0 - - 11 6 E - 0,0
22.05.2017 01:00:00 11,8 7,9 - - 15 8 E - 0,0
22.05.2017 00:00:00 12,4 7,4 - - 13 7 E - 0,0
21.05.2017 23:00:00 12,6 8,2 - - 13 7 E - 0,0
21.05.2017 22:00:00 12,4 8,2 - - 8 4 SSE - 0,0
21.05.2017 21:00:00 13,1 7,8 - - 15 8 ESE - 0,0
21.05.2017 20:00:00 13,5 7,1 - - 13 7 SE - 0,0
21.05.2017 19:00:00 13,8 9,0 - - 16 9 SSE - 0,0
21.05.2017 18:00:00 14,7 9,7 - - 9 5 SSE - 0,0
21.05.2017 17:00:00 15,6 9,7 - - 18 10 SSE - 0,0
21.05.2017 16:00:00 15,6 9,9 - - 13 7 SSE - 0,0
21.05.2017 15:00:00 14,6 10,3 - - 15 8 SSE - 0,0
21.05.2017 14:00:00 13,7 10,7 - - 16 9 SSE - 0,0
21.05.2017 13:00:00 11,6 9,9 - - 11 6 SSE - 1,2
21.05.2017 12:00:00 11,6 9,2 - - 11 6 ESE - 0,2
21.05.2017 11:00:00 11,4 8,5 - - 16 9 SSE - 0,2
21.05.2017 10:00:00 11,9 7,0 12,1 12,0 15 8 S 9 0,0
21.05.2017 09:00:00 11,6 7,1 - - 9 5 SSE - 0,0
21.05.2017 08:00:00 10,7 7,0 - - 9 5 SE - 0,0
21.05.2017 07:00:00 9,9 7,1 - - 9 5 E - 0,0
21.05.2017 06:00:00 9,5 6,7 - - 9 5 E - 0,0
21.05.2017 05:00:00 9,2 6,5 - - 8 4 ESE - 0,0
21.05.2017 04:00:00 8,7 6,1 - - 9 5 SSE - 0,0
21.05.2017 03:00:00 9,3 6,6 - - 13 7 SSE - 0,0
21.05.2017 02:00:00 9,1 7,0 - - 15 8 SSE - 0,0
21.05.2017 01:00:00 9,4 7,5 - - 15 8 SSE - 0,0
21.05.2017 00:00:00 9,6 7,6 - - 11 6 SSE - 0,0
20.05.2017 23:00:00 9,7 7,4 - - 5 3 SSO - 0,0
20.05.2017 22:00:00 9,7 7,4 - - 5 3 SO - 0,0
20.05.2017 21:00:00 10,2 7,5 - - 9 5 SO - 0,0
20.05.2017 20:00:00 10,7 7,8 - - 15 8 SO - 0,0
20.05.2017 19:00:00 11,4 8,2 - - 18 10 SO - 0,0
20.05.2017 18:00:00 11,7 8,8 - - 16 9 SO - 0,0
20.05.2017 17:00:00 12,2 9,3 - - 21 11 SO - 0,0
20.05.2017 16:00:00 10,7 9,2 - - 13 7 OSO - 1,6
20.05.2017 15:00:00 10,8 9,7 - - 13 7 SO - 0,4
20.05.2017 14:00:00 10,3 9,4 - - 13 7 OSO - 0,2
20.05.2017 13:00:00 11,4 9,2 - - 16 9 SO - 0,0
20.05.2017 12:00:00 11,5 8,8 - - 9 5 ONO - 0,0
20.05.2017 11:00:00 11,2 9,1 - - 5 3 NNE - 0,0
20.05.2017 10:00:00 10,4 9,5 12,3 12,2 5 3 NE 50 0,0
20.05.2017 09:00:00 10,0 9,1 - - 5 3 NE - 0,0
20.05.2017 08:00:00 9,5 8,8 - - 5 3 ESE - 0,2
20.05.2017 07:00:00 9,1 8,7 - - 8 4 E - 0,0
20.05.2017 06:00:00 9,2 8,8 - - 9 5 NE - 0,2
20.05.2017 05:00:00 9,0 8,4 - - 8 4 ENE - 0,2
20.05.2017 04:00:00 9,2 8,5 - - 4 2 E - 0,4
20.05.2017 03:00:00 9,4 8,2 - - 9 5 ENE - 0,4
20.05.2017 02:00:00 9,8 8,2 - - 11 6 E - 0,0
20.05.2017 01:00:00 10,3 7,6 - - 13 7 E - 0,2
20.05.2017 00:00:00 11,4 7,0 - - 9 5 ESE - 0,0
19.05.2017 23:00:00 12,3 6,4 - - 5 3 E - 0,0
19.05.2017 22:00:00 11,0 7,8 - - 4 2 SSO - 0,0
19.05.2017 21:00:00 11,8 7,0 - - 4 2 NE - 0,0
19.05.2017 20:00:00 12,9 7,5 - - 2 1 NE - 0,0
19.05.2017 19:00:00 13,5 7,0 - - 5 3 OSO - 0,0
19.05.2017 18:00:00 13,8 4,7 - - 8 4 O - 0,0
19.05.2017 17:00:00 16,1 7,1 - - 9 5 O - 0,0
19.05.2017 16:00:00 13,7 6,5 - - 9 5 O - 0,0
19.05.2017 15:00:00 12,2 5,9 - - 9 5 NO - 0,0
19.05.2017 14:00:00 13,5 8,2 - - 13 7 O - 0,0
19.05.2017 13:00:00 12,1 7,5 - - 11 6 O - 0,0
19.05.2017 12:00:00 12,0 7,7 - - 9 5 ONO - 0,0
19.05.2017 11:00:00 10,4 6,8 - - 5 3 NO - 0,0
19.05.2017 10:00:00 10,4 6,9 11,2 12,0 8 4 ONO 0,8 0,0
19.05.2017 09:00:00 10,5 7,5 - - 5 3 NE - 0,0
19.05.2017 08:00:00 8,8 7,1 - - 5 3 ENE - 0,0
19.05.2017 07:00:00 7,2 5,9 - - 5 3 ENE - 0,0
19.05.2017 06:00:00 6,6 5,6 - - 5 3 NE - 0,0
19.05.2017 05:00:00 5,2 4,7 - - 2 1 ENE - 0,0
19.05.2017 04:00:00 4,6 3,5 - - 2 1 SSO - 0,0
19.05.2017 03:00:00 6,2 4,7 - - 8 4 ENE - 0,0
19.05.2017 02:00:00 6,5 5,2 - - 9 5 NE - 0,0
19.05.2017 01:00:00 6,0 4,6 - - 2 1 SSO - 0,0
19.05.2017 00:00:00 6,9 6,1 - - 4 2 NE - 0,0
18.05.2017 23:00:00 7,1 5,5 - - 4 2 S - 0,0
18.05.2017 22:00:00 8,4 5,8 - - 8 4 SO - 0,0
18.05.2017 21:00:00 10,6 6,0 - - 8 4 SO - 0,0
18.05.2017 20:00:00 12,7 6,3 - - 13 7 OSO - 0,0
18.05.2017 19:00:00 12,7 5,1 - - 11 6 SSO - 0,0
18.05.2017 18:00:00 13,8 6,4 - - 18 10 OSO - 0,0
18.05.2017 17:00:00 14,3 6,6 - - 18 10 OSO - 0,0
18.05.2017 16:00:00 14,2 7,6 - - 21 11 OSO - 0,0
18.05.2017 15:00:00 14,0 6,8 - - 15 8 SSO - 0,0
18.05.2017 14:00:00 14,4 7,0 - - 18 10 SO - 0,0
18.05.2017 13:00:00 14,6 8,6 - - 22 12 OSO - 0,0
18.05.2017 12:00:00 13,8 9,0 - - 22 12 OSO - 0,0
18.05.2017 11:00:00 12,7 9,5 - - 18 10 OSO - 0,0
18.05.2017 10:00:00 11,8 8,4 12,1 11,7 13 7 OSO 1,5 0,0
18.05.2017 09:00:00 10,7 8,1 - - 8 4 SO - 0,0
18.05.2017 08:00:00 9,6 8,5 - - 8 4 ENE - 0,4
18.05.2017 07:00:00 7,6 6,5 - - 4 2 ENE - 0,0
18.05.2017 06:00:00 6,1 5,5 - - 8 4 E - 0,0
18.05.2017 05:00:00 5,2 4,7 - - 2 1 SSE - 0,0
18.05.2017 04:00:00 5,1 4,7 - - 0 0 N - 0,0
18.05.2017 03:00:00 5,0 4,6 - - 2 1 S - 0,0
18.05.2017 02:00:00 4,9 4,4 - - 2 1 ENE - 0,0
18.05.2017 01:00:00 5,7 4,9 - - 2 1 SSO - 0,0
18.05.2017 00:00:00 6,4 5,3 - - 4 2 S - 0,0
17.05.2017 23:00:00 7,8 6,3 - - 4 2 SSO - 0,0
17.05.2017 22:00:00 10,3 8,1 - - 2 1 ESE - 0,0
17.05.2017 21:00:00 10,9 7,9 - - 5 3 NNE - 0,0
17.05.2017 20:00:00 11,1 7,3 - - 11 6 OSO - 0,0
17.05.2017 19:00:00 11,1 7,4 - - 8 4 S - 0,0
17.05.2017 18:00:00 11,3 8,3 - - 15 8 SO - 0,0
17.05.2017 17:00:00 11,5 8,9 - - 21 11 OSO - 0,2
17.05.2017 16:00:00 12,8 9,4 - - 15 8 SO - 0,0
17.05.2017 15:00:00 13,1 8,5 - - 15 8 SO - 0,0

tt = Temperatura
td = dewpoint
tt 5cm = Temperatura 5cm
tt -20cm = Temperatura -20cm
ff = velocità del vento
dd = direzione del vento
vv = visibility
rr = precipitazioni

Stazioni seguenti

WeatherPro
AMSI
MeteoEarth